RH
47 49 45 49 58 62 68 87 93 86 66 63 62 61 59 52 45 42 45 37 39 35 36 45 43 45 42 44 39 49 49 64 60 52 52 56 52 58 43 46 56 41 40
56 50 53 65 74 69 74 92 84 79 70 65 64 61 71 57 42 43 45 45 31 34 36 42 43 42 44 45 44 46 49 58 68 61 66 55 44 47 30 47 51 43 49
53 55 61 71 83 85 89 92 83 73 66 57 50 56 54 43 38 43 45 35 32 38 38 40 43 45 48 53 49 49 53 55 59 66 52 44 47 64 53 48 59 38 50
52 54 60 80 89 90 93 92 74 65 58 54 51 52 64 62 40 38 36 36 38 39 38 39 41 44 48 46 46 43 52 57 61 59 50 57 62 56 59 58 40 49 32
51 54 61 68 90 94 96 84 68 64 63 56 52 50 58 51 38 34 33 32 38 38 38 39 40 43 48 44 44 45 46 55 59 62 65 64 63 69 76 52 53 40 37
59 56 66 91 95 94 88 75 68 71 65 59 57 48 41 37 38 37 38 43 43 42 37 35 39 41 44 43 46 46 44 49 51 54 54 60 63 66 65 65 55 54 46
65 85 93 93 92 90 84 74 67 72 66 56 47 39 35 34 40 42 40 38 39 41 35 34 36 40 41 42 45 48 49 51 50 50 52 61 60 63 66 67 64 61 54
78 84 88 87 86 83 78 71 69 69 62 54 50 47 44 45 44 40 39 38 37 38 34 35 36 37 38 40 44 52 51 48 51 47 52 58 60 64 67 70 74 73 62
88 89 89 84 82 79 74 69 65 61 55 50 46 44 41 39 36 35 35 36 36 30 34 36 37 39 40 41 45 51 47 49 49 51 55 60 63 68 72 75 77 78 82
87 91 86 82 76 72 67 60 54 51 46 42 37 36 34 32 32 31 32 33 33 35 36 37 39 41 42 44 46 49 49 46 51 48 55 60 65 69 74 78 78 80 81
92 86 81 75 69 63 57 51 46 42 38 35 32 30 30 29 30 30 33 33 35 36 38 39 41 43 45 46 47 47 44 49 54 55 59 62 63 71 75 80 75 78 80
82 79 74 69 63 58 51 45 40 37 35 32 30 31 31 31 32 33 34 35 37 39 40 42 43 44 46 47 47 47 49 54 58 60 63 65 50 68 72 74 76 78 74
80 77 71 66 59 53 46 40 37 35 33 31 31 33 34 34 36 37 37 37 39 42 42 43 45 46 48 47 46 46 52 59 62 64 67 68 70 74 78 76 75 75 65
78 74 69 64 56 48 42 38 36 34 34 33 33 35 37 38 38 39 39 41 42 41 44 44 45 47 47 46 44 54 62 65 63 66 69 70 72 74 75 70 65 62 68
77 70 69 62 55 47 41 37 36 35 34 36 39 41 43 42 42 42 42 43 43 43 45 46 46 48 45 32 55 61 67 71 70 71 68 67 69 65 62 57 63 65 73
74 71 66 61 55 45 41 37 37 40 38 39 42 45 43 42 44 42 42 42 42 44 47 47 48 50 37 48 51 54 70 72 70 74 68 71 67 70 66 66 66 63 82
74 72 67 59 52 45 38 39 40 40 40 41 42 42 42 42 42 37 39 41 44 48 49 49 50 51 53 51 54 54 66 71 77 75 71 66 58 70 74 78 71 86 74
74 72 66 60 52 44 42 41 40 41 42 42 40 41 41 39 36 38 40 44 48 50 52 51 52 54 47 56 55 58 69 74 75 75 76 77 76 81 64 67 97 85 69
73 70 64 57 48 44 41 40 43 42 40 39 39 37 36 35 38 41 45 49 50 52 53 52 53 56 60 58 59 60 71 71 70 69 74 82 70 65 64 79 77 68 66
76 74 62 52 47 43 39 40 41 38 38 37 36 34 35 37 42 47 49 51 52 48 48 48 54 59 62 62 62 58 64 70 64 68 69 67 62 65 75 60 65 78 68
76 62 56 51 45 40 38 40 38 38 36 35 34 36 38 45 48 50 51 53 54 54 60 59 65 65 67 74 61 60 61 65 65 64 66 68 69 66 63 63 66 70 68
67 58 52 46 41 38 37 38 36 39 37 36 38 43 48 41 44 51 55 56 62 65 68 72 68 68 72 65 62 62 62 60 61 68 68 66 65 65 65 66 70 69 68
57 50 47 44 43 41 32 34 38 39 38 38 46 50 51 50 52 56 59 62 68 73 75 69 73 69 60 72 65 66 65 61 64 65 64 67 67 66 67 69 70 69 68
53 47 45 44 44 40 34 35 40 40 39 49 53 56 64 59 60 53 55 72 74 77 66 69 70 76 69 70 65 66 66 66 66 67 69 67 65 68 68 66 64 65 70
50 47 44 42 44 40 40 41 39 41 47 52 53 59 60 63 63 58 67 77 77 71 70 73 72 72 71 63 61 61 60 63 63 64 67 66 69 72 70 69 69 69 71
48 46 44 42 42 40 43 46 46 48 50 51 55 66 62 67 61 68 71 58 55 57 56 56 57 57 61 62 65 64 64 65 68 70 74 77 78 80 77 79 79 77 82
Wind_Speed
12 7 7 7 6 5 6 7 9 9 11 9 9 7 7 6 6 7 8 8 10 6 8 6 6 5 6 5 5 3 5 5 6 4 5 3 3 2 1 2 2 3 3
7 7 6 6 7 6 7 7 8 7 7 7 4 5 7 5 6 6 8 5 9 8 7 7 6 6 5 6 6 6 3 3 5 3 1 5 6 4 6 2 2 4 5
12 8 8 8 6 7 8 8 9 8 7 11 11 10 9 7 5 6 6 6 7 7 7 7 6 6 5 5 5 4 5 3 4 6 3 4 3 4 4 4 3 7 4
12 9 9 8 9 7 6 7 10 9 9 11 12 17 11 10 4 5 6 6 5 7 7 8 6 6 4 6 4 4 3 2 3 2 3 1 2 3 7 3 6 3 9
16 14 13 13 7 8 7 7 10 8 8 9 10 9 10 8 8 7 10 8 6 7 7 7 7 6 4 5 6 5 5 3 2 1 1 1 2 1 2 9 6 9 8
12 11 9 10 8 7 7 8 11 7 9 10 9 12 17 14 11 8 7 5 4 5 7 7 6 5 5 5 4 4 5 2 2 1 1 1 0 2 2 5 10 12 6
10 10 13 13 13 12 9 9 12 10 10 12 12 13 14 14 12 8 7 6 4 4 5 6 5 4 4 5 4 4 3 2 1 0 1 1 2 2 2 4 8 9 9
7 14 15 15 16 15 12 11 12 12 11 12 12 10 11 7 7 7 6 5 5 5 5 6 5 5 5 4 3 2 2 2 2 3 2 2 3 2 3 3 6 13 5
11 12 13 14 15 14 13 13 13 11 11 12 12 10 10 9 9 8 7 6 6 6 6 6 6 4 4 4 3 2 3 2 2 4 4 3 4 4 4 4 3 5 12
11 11 11 12 11 13 12 12 13 14 12 12 11 10 10 9 9 8 8 7 6 6 6 6 5 4 4 4 3 3 3 2 3 3 4 5 4 5 4 4 5 5 9
14 14 12 11 11 13 13 14 14 15 12 11 12 12 9 9 8 8 7 7 6 6 6 5 4 4 3 4 3 4 3 5 5 5 5 6 6 4 4 4 6 7 8
14 13 14 15 14 13 13 14 13 14 11 11 12 11 10 9 8 7 7 6 6 6 5 4 4 4 3 3 4 5 5 5 6 6 6 7 6 6 6 6 9 9 10
16 15 15 14 14 12 12 13 13 13 12 12 12 10 9 8 8 7 6 6 6 6 5 5 4 4 4 5 5 5 6 6 6 5 6 7 6 7 7 8 9 8 8
17 16 14 13 12 12 13 13 13 12 11 11 11 10 8 7 7 6 6 6 6 6 4 4 4 4 5 5 6 6 6 5 5 5 6 7 7 9 9 8 9 10 11
16 15 15 14 13 13 12 12 12 11 11 12 10 9 7 7 7 7 6 6 6 5 4 4 5 5 5 4 6 5 5 5 6 6 7 8 11 20 18 12 12 14 12
15 14 14 14 14 14 13 12 12 11 11 10 10 8 8 7 6 6 6 6 5 4 4 5 5 5 4 13 14 12 4 4 6 8 8 7 13 13 22 24 26 22 16
15 15 15 15 13 13 14 13 12 10 10 10 9 8 7 7 6 5 5 5 4 3 4 4 4 6 6 13 15 16 4 5 6 9 9 8 8 16 12 20 25 20 22
14 14 13 13 12 12 12 12 11 10 10 9 8 7 7 7 5 5 5 4 3 3 2 4 5 5 6 14 16 18 5 6 8 9 8 8 11 10 19 16 11 11 10
13 12 13 15 14 14 13 13 11 10 10 9 8 7 7 7 5 5 5 3 3 2 3 3 6 6 6 15 18 16 6 6 8 8 7 8 11 21 28 16 14 14 12
13 15 15 14 14 12 13 14 11 11 9 8 8 7 6 6 6 5 4 2 2 3 4 5 4 8 6 14 18 16 6 7 8 6 6 13 19 28 27 17 13 13 15
16 14 14 14 13 13 14 13 11 9 8 9 8 7 6 7 6 4 2 3 3 4 4 5 6 6 7 8 18 19 8 8 9 9 8 8 24 27 28 26 10 14 18
15 14 14 13 11 13 14 12 10 8 9 10 8 7 6 5 4 5 3 3 4 4 5 6 5 4 6 12 14 19 20 20 10 10 9 11 26 27 26 19 24 25 21
12 11 14 14 9 9 12 14 9 10 9 9 7 6 6 5 4 4 3 3 3 3 4 4 5 6 5 5 17 20 21 21 13 9 18 26 25 24 16 20 23 20 9
11 12 15 14 10 8 10 13 10 9 10 8 7 5 5 5 3 3 2 2 3 4 4 5 6 5 6 5 7 6 8 13 11 14 10 16 18 18 17 14 12 8 9
10 11 13 12 10 11 11 9 9 9 9 7 6 5 4 4 3 2 1 2 4 3 4 4 4 6 7 7 17 16 11 10 14 17 7 8 8 9 9 9 10 10 9
11 12 12 14 11 12 10 8 7 8 8 6 4 4 3 2 2 3 4 6 7 12 12 15 11 7 15 20 21 22 22 23 23 9 8 9 9 10 10 11 11 10 13
Wind_Direction
255 251 244 220 210 193 167 150 138 148 140 138 130 122 122 111 99 93 91 95 105 90 95 91 81 69 71 63 40 56 39 15 345 358 335 342 11 289 7 42 42 18 0
255 252 233 192 189 192 173 146 135 145 145 136 103 110 123 94 93 92 89 94 98 100 93 95 84 75 80 59 47 43 34 14 13 19 319 1 335 353 317 16 32 8 8
246 227 206 201 187 189 179 153 138 128 116 120 114 103 97 100 92 89 87 74 93 90 93 87 87 81 81 77 64 52 54 34 3 33 87 3 309 327 321 336 359 355 2
228 213 194 181 192 196 162 141 132 128 133 139 137 148 145 142 127 120 112 103 83 89 87 88 87 83 76 70 68 61 67 95 39 346 33 69 195 314 321 316 320 1 321
216 202 186 193 179 157 156 140 125 123 129 132 139 128 112 107 110 114 114 102 80 79 81 81 77 75 74 76 73 59 55 58 105 92 354 342 312 56 263 300 309 308 309
210 200 181 147 132 133 136 140 129 119 123 120 118 129 129 131 129 130 117 99 91 80 73 76 77 80 80 73 69 62 59 65 74 83 92 189 101 304 278 285 306 297 299
190 164 161 155 145 152 148 142 135 127 122 118 118 126 127 128 127 129 123 124 110 77 75 79 79 77 77 69 62 55 44 47 36 328 294 172 218 224 246 283 299 299 304
192 177 169 163 155 151 151 142 135 125 120 117 114 113 113 112 111 116 113 104 102 99 100 92 85 78 71 59 51 40 358 20 330 311 250 245 267 240 235 253 300 312 290
170 178 164 160 148 147 146 141 128 120 115 117 116 106 107 110 115 103 101 100 106 107 94 87 83 70 61 47 25 8 336 324 285 289 261 244 263 247 245 244 241 283 310
164 158 154 148 142 131 123 121 123 121 118 113 113 110 109 107 106 105 100 100 96 96 93 83 73 59 44 24 12 342 318 331 307 288 270 268 249 249 250 246 247 239 266
161 152 139 127 124 118 125 118 118 118 112 111 111 109 107 102 96 99 102 102 101 97 90 83 73 55 31 9 352 330 302 328 313 299 275 278 276 267 260 250 254 256 254
143 136 132 124 127 121 126 121 121 115 115 116 110 108 104 101 100 101 101 104 102 90 91 78 62 34 9 346 343 331 319 310 307 299 307 295 303 286 269 264 263 259 261
127 128 124 129 125 126 125 120 120 116 116 115 111 104 104 107 106 105 106 100 100 88 74 64 45 15 350 342 329 301 300 299 295 299 302 289 282 280 270 264 269 271 276
136 131 127 125 124 126 124 120 116 119 119 113 111 112 113 113 113 113 105 99 93 83 70 52 30 6 344 324 302 301 302 307 317 313 295 288 282 279 278 277 293 302 293
134 136 131 129 126 123 118 117 117 119 121 114 113 115 116 115 113 106 101 95 81 78 62 36 16 358 325 314 312 298 301 315 308 294 288 283 292 311 313 309 314 302 297
138 133 130 130 134 132 128 126 125 122 121 118 119 123 119 115 109 105 99 88 78 62 41 19 1 334 325 321 322 328 309 299 295 293 286 271 296 298 309 310 308 302 309
143 141 141 142 138 135 134 132 130 124 118 121 124 122 119 113 109 105 94 81 70 47 24 354 337 326 313 317 326 325 318 304 286 283 285 298 301 308 289 287 295 301 310
140 138 139 130 127 125 121 122 127 123 121 119 120 122 118 113 108 96 84 73 59 32 342 327 333 319 306 327 327 326 317 289 274 272 278 283 290 290 302 309 309 301 299
142 141 137 132 130 131 133 125 121 120 121 127 127 125 121 115 107 95 81 73 51 350 345 317 321 322 301 329 331 326 300 275 279 283 270 281 303 306 314 324 315 314 308
134 132 129 129 127 133 132 128 128 130 133 135 125 116 112 111 107 101 91 79 44 351 332 324 308 312 321 320 324 325 306 301 304 298 283 307 314 316 324 324 323 317 305
125 123 128 134 134 134 131 129 134 135 127 115 110 105 103 105 109 103 77 47 9 350 336 312 316 316 304 302 320 327 323 310 314 318 319 309 312 324 329 325 330 299 317
122 123 120 122 130 136 131 130 126 120 110 110 108 101 99 91 89 84 56 27 14 348 331 325 310 291 288 305 324 328 328 322 325 318 310 303 324 327 327 329 315 325 331
118 120 122 119 112 125 135 126 125 115 111 105 105 107 101 89 76 81 47 22 351 350 324 310 304 301 308 297 314 318 317 325 320 316 314 328 326 327 326 317 324 326 315
116 121 120 118 101 93 102 115 119 116 114 111 110 109 105 87 62 51 57 8 347 329 311 302 306 301 310 294 297 294 309 313 317 316 323 325 326 322 318 320 316 311 311
115 118 120 114 102 103 103 110 118 117 111 110 107 101 94 80 52 23 292 320 278 270 300 292 295 311 313 310 323 326 318 329 327 334 333 321 322 321 318 315 314 314 312
110 102 100 105 106 106 106 105 111 115 116 111 112 112 93 60 53 4 332 330 319 327 326 328 326 317 316 323 328 322 336 334 335 338 323 320 320 317 316 315 313 312 314